Terminal Aerodrome Forecast
Issued by NWS Quad Cities IA IL

Home | Current Version | Previous Version | Text Only | Print | Product List | Glossary On
Versions: 1 2 3 4 5 6 7 8 9 10 11 12 13 14 15 16 17 18 19
952
FTUS43 KDVN 232347
TAFMLI
TAF
KMLI 232347Z 2400/2424 30006KT P6SM OVC015
     FM241000 VRB03KT 6SM BR OVC008
     FM241500 11008KT P6SM BKN015
     FM241800 12011KT P6SM BKN035=

USA.gov is the U.S. government's official web portal to all federal, state and local government web resources and services.